Emporia, KS

12:20 AM CST on November 20, 2019 (GMT -0600)
Emporia Municipal

Weather History for KEMP - October, 2019

Change the Weather History Date:

Wednesday, October 23, 2019

  Actual Average Record
Temperature  
Mean Temperature 58 °F 54 °F  
Max Temperature 69 °F 66 °F 85 °F (2012)
Min Temperature 47 °F 43 °F 27 °F (2006)
Degree Days  
Heating Degree Days 7 11  
Month to date heating degree days 208 178  
Since 1 July heating degree days 208 228  
Cooling Degree Days 0 0  
Month to date cooling degree days 24 29  
Year to date cooling degree days 1486 1402  
Growing Degree Days 8 (Base 50)    
Moisture  
Dew Point 38 °F    
Average Humidity 50    
Maximum Humidity 83    
Minimum Humidity 31    
Precipitation  
Precipitation 0.00 in 0.08 in 1.15 in (2002)
Month to date precipitation 1.91 2.24  
Year to date precipitation 40.97 32.24  
Sea Level Pressure  
Sea Level Pressure 29.94 in    
Wind  
Wind Speed 11 mph ()    
Max Wind Speed 32 mph    
Max Gust Speed 43 mph    
Visibility 10.0 miles    
Events      
T = Trace of Precipitation, MM = Missing Value Source: Averaged Metar Reports

Daily Weather History Graph

Daily Weather History Graph

Search for Another Location

Airport or City:

Astronomy

Oct. 23, 2019 Rise Set
Actual Time 7:41 AM CDT 6:36 PM CDT
Civil Twilight 7:14 AM CDT 7:03 PM CDT
Nautical Twilight 6:43 AM CDT 7:33 PM CDT
Astronomical Twilight 6:12 AM CDT 8:04 PM CDT
Moon 2:07 AM CDT (10/23) 4:22 PM CDT (10/23)
Length of Visible Light 11h 48m
Length of Day
10h 54m
Waning Crescent, 26% of the Moon is Illuminated
Oct 23
Waning Crescent
Oct 27
New
Nov 4
First Quarter
Nov 12
Full
Nov 19
Last Quarter

Hourly Weather History & Observations

Time (CDT) Temp. Dew Point Humidity Pressure Visibility Wind Dir Wind Speed Gust Speed Precip Events Conditions
12:53 AM 48.0 °F 35.1 °F 61% 29.94 in 10.0 mi South 10.4 mph - N/A   Clear
1:53 AM 48.0 °F 36.0 °F 63% 29.92 in 10.0 mi South 10.4 mph - N/A   Clear
2:53 AM 48.0 °F 36.0 °F 63% 29.91 in 10.0 mi South 10.4 mph - N/A   Clear
3:53 AM 50.0 °F 36.0 °F 59% 29.88 in 10.0 mi South 10.4 mph - N/A   Clear
4:53 AM 48.0 °F 37.0 °F 66% 29.88 in 10.0 mi South 11.5 mph - N/A   Clear
5:53 AM 55.0 °F 33.1 °F 43% 29.88 in 10.0 mi SSW 16.1 mph 26.5 mph N/A   Clear
6:53 AM 57.9 °F 33.1 °F 39% 29.88 in 10.0 mi SSW 20.7 mph 29.9 mph N/A   Clear
7:53 AM 55.9 °F 34.0 °F 44% 29.89 in 10.0 mi SSW 18.4 mph 28.8 mph N/A   Clear
8:53 AM 57.0 °F 34.0 °F 42% 29.89 in 10.0 mi SSW 23.0 mph 35.7 mph N/A   Clear
9:53 AM 63.0 °F 35.1 °F 35% 29.88 in 10.0 mi SSW 26.5 mph 42.6 mph N/A   Clear
10:53 AM 66.0 °F 37.0 °F 34% 29.90 in 10.0 mi SW 24.2 mph 34.5 mph N/A   Clear
11:53 AM 63.0 °F 37.0 °F 38% 29.89 in 10.0 mi WSW 20.7 mph 32.2 mph N/A   Clear
12:53 PM 66.9 °F 37.0 °F 33% 29.88 in 10.0 mi WSW 17.3 mph 26.5 mph N/A   Clear
1:53 PM 69.1 °F 37.0 °F 31% 29.89 in 10.0 mi West 12.7 mph 24.2 mph N/A   Clear
2:53 PM 68.0 °F 39.0 °F 35% 29.89 in 10.0 mi WNW 13.8 mph 21.9 mph N/A   Clear
3:53 PM 66.0 °F 41.0 °F 40% 29.91 in 10.0 mi NW 12.7 mph - 0.00 in   Clear
4:53 PM 64.0 °F 42.1 °F 45% 29.95 in 10.0 mi NW 8.1 mph - N/A   Clear
5:53 PM 62.1 °F 39.9 °F 44% 29.98 in 10.0 mi NW 8.1 mph - N/A   Clear
6:53 PM 57.9 °F 39.9 °F 51% 30.01 in 10.0 mi NW 3.5 mph - N/A   Clear
7:53 PM 55.0 °F 41.0 °F 59% 30.05 in 10.0 mi NW 3.5 mph - N/A   Clear
8:53 PM 54.0 °F 39.9 °F 59% 30.08 in 10.0 mi WNW 3.5 mph - N/A   Clear
9:53 PM 50.0 °F 42.1 °F 74% 30.10 in 10.0 mi Calm Calm - N/A   Clear
11:53 PM 48.0 °F 43.0 °F 83% 30.13 in 10.0 mi North 4.6 mph - N/A   Clear